Flag for Canada Weather past 2 weeks in Vancouver, British Columbia, Canada

Now
66 °F

Passing clouds.


Feels Like: 66 °F
Forecast: 57 / 68 °F
Wind: 13 mph from East

Location: Vancouver International Air-Port

Current Time: Aug 28, 2014 at 10:46:56 PM

Latest Report: Aug 28, 2014 at 10:00 PM


Visibility: 20 mi

Pressure: 29.99 "Hg

Humidity: 78%

Dew point: 59 °F

Location of VancouverLocation

Historic Weather in Vancouver — Graph

°F

Vancouver temperature yesterday

Maximum temperature yesterday: 77 °F (at 5:00 PM)
Minimum temperature yesterday: 63 °F (at 5:00 AM)
Average temperature yesterday: 69 °F

Past Weeks' High & Low Weather Summary

 TemperatureHumidityPressure
High77 °F (Aug 27, 5:00 PM)100% (Aug 14, 12:00 AM)30.15 "Hg (Aug 14, 12:00 AM)
Low55 °F (Aug 23, 6:00 AM)57% (Aug 21, 6:00 PM)29.75 "Hg (Aug 19, 8:00 PM)
Average66 °F81%30.00 "Hg
* Reported Aug 13 9:00 PM — Aug 28 9:00 PM, Vancouver, Weather by CustomWeather, © 2014

Note: Actual official high and low records may vary slightly from our data, if they occured in-between our weather recording intervals... More about our weather records

Advertising

Vancouver weather history for previous 24 hours

 ConditionsComfort  
Time TempWeatherWind HumidityBarometerVisibility
9:00 PM
Aug 28
66 °FPartly sunny.13 mph78%30.00 "Hg20 mi
8:00 PM68 °FPartly sunny.12 mph73%30.01 "Hg20 mi
7:00 PM70 °FCloudy.12 mph69%30.01 "Hg20 mi
6:00 PM72 °FMore clouds than sun.13 mph65%30.02 "Hg30 mi
5:00 PM72 °FOvercast.12 mph65%30.03 "Hg30 mi
4:00 PM73 °FPartly sunny.9 mph61%30.05 "Hg30 mi
3:00 PM73 °FBroken clouds.14 mph61%30.06 "Hg25 mi
2:00 PM72 °FPartly sunny.12 mph69%30.07 "Hg25 mi
1:00 PM72 °FPartly sunny.9 mph69%30.07 "Hg20 mi
12:00 PM70 °FScattered clouds.13 mph69%30.08 "Hg20 mi
11:00 AM68 °FPartly sunny.13 mph73%30.08 "Hg15 mi
10:00 AM66 °FCloudy.12 mph78%30.06 "Hg15 mi
9:00 AM66 °FPartly sunny.13 mph78%30.05 "Hg15 mi
8:00 AM63 °FMostly cloudy.14 mph83%30.04 "Hg15 mi
7:46 AM61 °FPartly sunny.14 mph88%30.04 "Hg15 mi
7:00 AM61 °FPartly cloudy.14 mph88%30.03 "Hg15 mi
6:00 AM61 °FPartly cloudy.16 mph88%30.02 "Hg20 mi
5:00 AM61 °FPassing clouds.14 mph88%30.01 "Hg20 mi
4:00 AM61 °FPassing clouds.14 mph88%30.01 "Hg20 mi
3:00 AM61 °FPassing clouds.9 mph88%30.00 "Hg20 mi
2:00 AM61 °FPassing clouds.10 mph88%29.98 "Hg20 mi
1:00 AM63 °FClear.8 mph83%29.98 "Hg20 mi
12:00 AM64 °FPassing clouds.10 mph78%29.97 "Hg20 mi
11:00 PM
Aug 27
64 °FPassing clouds.9 mph78%29.97 "Hg20 mi
10:00 PM66 °FPassing clouds.12 mph83%29.97 "Hg20 mi
Weather by CustomWeather, © 2014

See weather overviewHow to use our weather pages